Regional Weather Roundup
Issued by NWS Sioux Falls, SD

Home | Current Version | Previous Version | Graphics & Text | Print | Product List | Glossary On
Versions: 1 2 3 4 5 6 7 8 9 10 11 12 13 14 15 16 17 18 19 20 21 22 23 24 25 26 27 28 29 30 31 32 33 34 35 36 37 38 39 40 41 42 43 44 45 46 47 48 49 50
000
ASUS43 KFSD 231110
RWRFSD

WEATHER ROUNDUP FOR SE SOUTH DAKOTA/SW MINNESOTA/NW IOWA
NATIONAL WEATHER SERVICE SIOUX FALLS SD
600 AM CDT WED AUG 23 2017

NOTE: "FAIR" INDICATES FEW OR NO CLOUDS BELOW 12,000 FEET WITH NO
SIGNIFICANT WEATHER AND OR OBSTRUCTIONS TO VISIBILITY.


SDZ038>040-050-052>070-231200-
SOUTHEAST SOUTH DAKOTA

CITY           SKY/WX    TMP DP  RH WIND       PRES   REMARKS
CHAMBERLAIN    CLEAR     55  54  96 E3        30.10S
HURON          CLEAR     52  50  93 E3        30.12S
MADISON        FAIR      48  48 100 CALM      30.15S
MITCHELL       CLEAR     53  51  93 SE5       30.13S
SIOUX FALLS    CLEAR     51  51 100 CALM      30.14S
WINNER         FAIR      58  54  86 SE7       30.09F
YANKTON        CLEAR     55  53  93 CALM      30.15R
$$

MNZ071-072-080-081-089-090-097-098-231200-
SOUTHWEST MINNESOTA

CITY           SKY/WX    TMP DP  RH WIND       PRES   REMARKS
FAIRMONT       CLEAR     53  49  86 W6        30.13S
JACKSON        CLEAR     50  46  87 CALM      30.15R
LUVERNE        CLEAR     46  45  93 CALM      30.15F
MARSHALL       CLEAR     51  48  89 W3        30.13S
MONTEVIDEO     CLEAR     48  45  87 NW5       30.12S
PIPESTONE      CLEAR     54  48  82 CALM      30.14S
REDWOOD FALLS  CLEAR     51  47  86 W7        30.12R
TRACY          CLEAR     54  49  84 SW8       30.14S
WINDOM         CLEAR     48  46  93 CALM      30.14S
WORTHINGTON    CLEAR     51  47  86 W5        30.15S
$$

IAZ001>003-012>014-020>022-031-032-NEZ013-014-SDZ071-231200-
NORTHWEST IOWA

CITY           SKY/WX    TMP DP  RH WIND       PRES   REMARKS
CHEROKEE       CLEAR     49  49 100 CALM      30.15S
DENISON        CLEAR     50  50 100 CALM      30.17R
ESTHERVILLE    CLEAR     50  49  96 W8        30.13S
ORANGE CITY    CLEAR     55  54  94 CALM      30.15S
SHELDON        CLEAR     46  45  93 NE3       30.14S
SIOUX CITY     PTCLDY    52  52 100 E5        30.14F
SPENCER        CLEAR     48  46  93 CALM      30.15S
STORM LAKE     CLEAR     55  50  82 W8        30.15S
$$

ABBREVIATIONS USED IN REMARKS
   TC - TEMPERATURE IN CELSIUS
  WCI - WIND CHILL INDEX
   HX - HEAT INDEX
  VSB - VISIBILITY




USA.gov is the U.S. government's official web portal to all federal, state and local government web resources and services.